Theta_e
349 350 351 351 351 351 351 349 349 350 348 348 350 353 353 353 350 349 347 344 342 336 331 325 325 325 328 329 329 329 329 331 332 336 333 325 321 323 318 319 324 327 329
349 350 351 352 352 351 351 351 351 351 349 349 350 352 352 352 350 349 346 342 340 335 331 326 328 327 325 325 327 330 329 331 331 336 328 323 323 320 317 318 323 325 328
349 350 350 351 352 351 352 351 352 351 351 350 351 349 350 350 349 348 346 342 338 335 331 326 326 327 328 326 327 329 329 330 332 332 327 324 322 321 319 319 319 326 329
350 350 352 353 352 352 352 352 352 351 352 352 352 350 350 349 349 347 344 341 338 334 331 327 326 326 328 328 328 328 328 328 330 330 327 323 322 320 322 322 322 321 325
353 352 352 353 354 354 353 352 353 353 353 352 352 352 351 350 349 348 344 341 338 332 330 327 325 324 324 326 326 327 327 328 328 328 326 324 322 321 321 319 318 318 323
353 353 353 355 354 353 355 355 354 353 354 354 352 352 352 350 348 347 348 339 337 332 330 327 325 322 324 324 324 324 324 326 326 327 326 325 323 321 318 317 317 316 318
355 355 354 353 351 352 353 356 356 355 353 353 353 352 351 350 348 348 348 343 341 332 330 327 325 324 324 324 322 321 320 320 323 326 326 325 322 319 316 318 319 319 319
358 358 356 355 354 352 354 355 357 356 355 355 354 353 351 350 349 349 349 343 339 333 330 326 324 325 326 326 325 324 323 321 320 320 324 321 318 311 318 319 320 319 317
356 358 359 359 357 356 357 357 356 357 356 356 355 352 350 348 345 346 346 338 333 330 327 324 325 326 323 321 323 322 322 319 314 314 314 312 313 313 314 316 317 318 318
352 354 360 360 359 358 358 358 358 350 353 353 351 350 348 344 341 336 330 331 329 326 324 322 323 322 322 319 319 320 320 318 316 315 314 314 315 315 315 317 319 319 319
352 352 353 358 361 360 359 360 355 347 351 351 350 348 346 344 341 337 332 334 327 323 322 322 322 321 318 314 312 318 318 319 318 319 318 319 320 319 318 316 318 318 320
348 350 351 352 354 355 357 360 358 356 351 347 345 343 342 340 338 335 335 335 328 324 320 319 321 313 312 310 314 316 318 319 319 319 320 320 319 318 318 319 318 315 318
349 351 349 349 350 351 353 354 351 351 346 344 342 340 337 334 335 335 333 332 331 327 322 320 320 311 310 310 315 317 318 320 320 320 319 319 319 319 318 315 315 315 316
347 349 350 349 348 349 350 348 347 346 344 345 345 340 337 333 330 326 325 331 332 329 321 318 320 315 314 318 317 319 320 319 319 320 319 319 316 315 315 317 318 320 320
342 347 348 348 349 348 348 347 346 345 344 344 342 340 336 331 330 328 326 329 327 326 321 319 318 318 317 321 321 320 320 317 316 318 318 316 314 315 317 318 319 320 322
339 343 345 345 345 345 344 342 343 342 341 340 339 339 338 337 334 333 332 329 327 327 321 320 320 320 321 321 320 320 319 317 317 317 315 314 315 316 317 319 320 321 323
337 340 344 343 343 342 341 342 340 338 337 338 338 337 337 338 338 334 329 327 327 324 322 320 320 320 321 320 319 320 320 320 319 317 316 316 316 317 318 320 323 323 323
337 340 340 340 343 341 340 340 339 337 335 334 335 335 335 334 334 334 330 327 322 321 322 320 320 321 320 320 320 322 322 321 320 318 316 316 317 318 320 324 323 323 323
335 336 338 337 339 340 340 339 338 336 334 333 332 330 332 333 332 332 330 325 321 321 322 323 322 319 319 320 322 321 322 323 322 319 318 318 319 319 321 324 323 322 323
335 334 333 334 338 339 338 337 336 335 332 331 328 329 328 327 321 317 319 322 321 321 323 323 321 320 320 319 320 321 321 321 321 321 321 321 320 320 320 322 321 322 323
327 332 331 333 335 337 337 337 334 334 332 331 329 328 328 326 323 319 318 321 322 320 321 321 321 320 320 321 320 320 318 320 322 321 320 319 318 321 322 321 321 320 321
326 328 335 336 336 335 336 336 335 332 332 331 329 327 327 326 323 320 320 322 322 320 319 319 320 319 318 318 318 317 318 318 319 320 320 322 321 320 320 321 322 322 322
324 328 330 331 334 335 336 337 336 335 335 333 331 327 323 322 324 320 320 319 321 320 322 320 319 318 317 317 316 314 315 317 320 321 320 320 321 321 321 321 323 323 322
325 327 329 331 333 334 335 335 335 334 334 334 329 326 322 321 323 321 321 320 320 320 320 320 319 319 319 316 311 311 315 317 317 318 317 318 318 320 320 323 322 321 318
322 323 325 328 328 332 334 334 335 335 334 332 329 326 322 321 322 322 321 321 320 320 321 320 319 320 320 318 316 316 318 319 317 316 317 318 320 320 322 322 318 315 314
324 323 322 323 325 327 333 333 333 334 333 331 330 329 324 322 322 323 321 320 320 321 322 322 322 320 320 320 320 320 319 317 316 315 316 320 321 322 321 316 314 312 312
Wind_Speed
25 26 25 25 25 26 24 26 26 22 23 24 23 22 22 21 21 21 17 16 17 14 13 11 11 12 9 8 7 6 7 10 11 7 9 11 10 8 7 7 5 6 6
25 28 27 24 24 24 27 26 26 27 27 26 24 22 22 22 22 23 20 18 20 18 16 14 12 11 12 11 8 7 7 8 8 11 11 11 10 11 9 7 5 4 7
22 24 24 25 25 27 27 29 28 29 28 26 26 26 24 23 25 26 23 21 20 18 17 16 14 14 12 11 9 8 7 7 8 10 12 12 9 9 8 6 4 4 5
18 18 21 25 30 30 30 30 29 31 30 28 28 28 27 27 27 26 25 23 20 18 17 15 14 15 15 15 13 10 8 7 6 10 12 12 10 8 7 6 5 3 5
19 21 26 26 26 27 28 31 31 28 31 34 31 29 28 28 28 28 27 26 26 22 20 18 16 17 19 16 14 13 11 10 11 12 11 10 11 9 8 4 3 4 6
17 20 23 22 26 30 28 29 30 32 31 31 37 36 31 30 31 35 35 28 29 26 23 21 18 20 20 19 18 15 15 14 14 13 12 12 10 9 6 5 5 6 7
9 14 22 28 29 33 30 28 30 32 35 37 36 35 38 41 40 41 42 35 35 27 25 24 23 21 21 19 17 14 14 14 14 14 15 13 11 10 9 9 6 7 4
11 20 20 24 26 26 26 30 31 31 30 28 30 33 35 42 45 46 44 39 38 32 27 26 26 25 23 22 18 15 12 11 13 12 12 13 10 14 12 9 8 7 6
8 13 17 20 28 26 26 26 27 26 25 25 21 24 27 24 28 43 46 37 32 30 30 29 28 25 27 26 22 18 15 12 13 12 14 17 17 15 13 11 8 8 6
4 9 13 16 17 22 25 25 24 21 22 22 22 25 26 25 6 4 18 22 21 28 32 32 32 30 29 27 22 22 21 20 18 18 19 17 16 14 12 9 6 6 4
4 8 11 10 13 22 25 23 20 23 22 23 27 29 30 28 28 32 23 31 19 23 26 30 30 27 28 28 25 22 19 21 19 17 15 14 12 11 11 12 10 8 6
12 11 11 10 7 11 20 18 20 20 21 23 23 22 29 36 36 30 33 34 30 22 18 23 30 30 28 28 26 21 21 19 17 17 16 16 16 15 13 12 12 12 11
8 7 8 10 10 8 13 18 16 18 19 18 20 20 23 26 31 33 40 41 32 29 32 35 34 30 29 28 24 20 19 17 17 17 17 15 15 13 11 12 12 13 13
11 8 7 7 8 6 8 13 19 19 16 16 18 19 19 21 22 30 35 41 34 35 35 32 32 28 30 28 27 21 19 19 18 18 16 13 11 11 11 11 11 12 12
15 12 9 7 7 8 9 11 17 18 20 22 25 24 21 20 26 30 34 41 36 37 32 24 27 28 27 22 21 22 21 17 17 17 15 13 12 11 11 10 11 12 14
16 16 13 7 7 8 10 13 17 23 24 28 25 29 29 34 31 30 39 39 41 40 29 26 22 24 25 24 23 21 19 18 18 17 16 15 13 12 11 11 12 13 14
16 20 18 11 11 11 11 12 13 16 19 22 25 28 31 30 27 26 36 30 32 36 26 26 26 25 24 23 23 21 21 21 21 18 17 16 14 13 13 13 13 13 14
18 22 22 20 12 12 12 14 16 14 12 16 20 22 25 25 25 26 36 37 37 37 29 24 25 25 25 25 22 23 22 19 21 20 18 17 15 15 13 14 13 15 15
18 19 22 19 11 12 13 15 17 19 17 14 14 12 17 24 23 27 33 34 30 28 27 27 27 27 29 26 26 23 22 23 23 24 18 18 16 16 16 16 16 17 16
19 23 20 15 13 13 14 15 16 15 15 15 16 18 20 22 22 27 33 24 26 28 30 29 31 34 35 33 25 22 21 19 23 24 21 18 16 15 18 16 16 15 14
19 22 21 16 15 15 15 14 15 16 15 15 18 20 28 30 27 28 29 31 28 28 31 30 33 32 28 26 26 23 25 20 20 19 18 17 18 15 16 17 16 18 17
18 19 19 18 16 16 17 16 17 17 15 15 16 19 26 30 24 25 30 25 25 27 31 34 30 29 28 27 26 27 25 23 21 19 19 15 16 17 17 19 18 17 16
19 19 20 19 18 18 19 19 19 20 18 17 18 21 28 30 24 29 34 29 27 32 32 30 33 30 27 25 23 28 25 27 25 22 12 11 13 17 16 16 16 15 15
20 19 20 21 20 19 19 20 22 24 22 20 20 23 27 29 26 27 33 33 30 26 30 31 30 26 26 26 27 29 30 25 22 26 19 11 17 16 15 15 14 15 14
21 20 18 18 17 19 19 20 21 22 22 22 21 20 22 24 24 24 24 24 25 26 23 23 24 27 29 31 30 33 33 33 33 32 21 16 19 20 16 15 14 13 13
24 23 22 18 18 18 21 18 20 19 18 20 21 20 25 25 24 20 21 21 21 20 21 22 23 25 25 25 30 31 32 28 27 23 19 15 18 18 17 17 16 14 13
Wind_Direction
206 207 209 210 213 216 216 221 224 224 223 220 217 214 212 212 212 212 212 213 216 215 213 211 205 205 205 213 214 209 208 206 223 180 174 169 161 154 145 139 139 157 174
206 205 208 214 212 212 217 220 223 224 225 225 222 216 213 213 213 213 212 212 212 210 210 207 203 204 208 213 219 216 212 202 213 186 168 170 166 161 157 144 128 154 178
214 211 212 213 213 216 219 220 220 223 225 224 222 219 214 213 213 215 216 214 214 214 213 209 201 199 200 196 197 200 206 205 202 193 169 176 165 166 166 159 143 145 166
226 227 221 217 217 217 219 222 221 225 223 221 221 221 218 215 213 211 213 213 214 213 213 213 208 202 198 197 193 195 194 192 196 186 180 174 170 170 186 190 187 170 191
217 220 231 231 230 225 224 220 220 222 224 224 221 221 219 216 216 211 209 210 211 207 208 209 208 202 198 197 192 190 184 183 180 183 177 182 181 176 197 199 219 199 186
210 227 238 240 235 233 229 225 220 219 223 222 221 220 217 220 221 220 220 206 208 205 202 200 198 197 194 197 200 199 199 186 183 193 194 199 185 184 180 194 213 198 181
262 252 239 238 236 232 228 225 226 222 219 215 218 216 218 224 224 227 227 215 216 205 202 196 190 192 189 187 189 194 194 200 198 189 188 190 179 183 177 170 168 172 165
323 288 273 261 249 241 231 224 225 228 224 223 221 220 220 223 229 234 231 215 215 209 201 198 192 182 182 178 177 178 178 181 180 184 184 180 177 171 159 160 158 155 152
316 295 286 277 264 254 244 237 234 237 229 221 225 223 224 240 239 235 226 206 203 202 201 198 192 184 182 184 172 173 170 169 175 181 173 166 160 157 156 152 161 178 170
333 312 309 298 272 263 254 247 242 231 231 213 213 221 217 217 203 278 278 332 219 189 199 200 200 196 183 185 174 172 171 171 162 152 158 162 169 175 181 180 184 212 216
20 5 5 345 294 274 262 253 236 230 220 207 215 222 206 220 229 225 239 239 243 291 191 194 201 203 188 181 182 175 179 171 173 170 178 183 186 192 207 217 220 223 232
1 2 349 351 337 303 279 265 248 225 208 200 206 212 229 236 229 206 217 220 208 182 239 213 205 196 188 185 183 180 177 175 184 189 193 199 203 203 212 221 232 234 234
331 333 334 338 336 329 267 233 204 202 190 191 200 210 217 200 212 221 209 208 196 175 195 223 212 198 189 189 190 192 187 188 191 192 196 201 204 213 208 221 230 232 245
292 298 305 313 316 304 255 224 196 184 186 203 212 220 224 218 208 191 195 196 181 179 184 208 218 201 196 192 194 197 193 195 198 200 205 208 199 203 215 215 219 226 235
289 284 276 274 277 272 260 244 229 228 229 221 220 221 216 220 212 207 195 183 181 183 182 189 195 192 204 197 190 191 194 196 202 206 209 209 211 214 222 220 229 235 240
293 282 271 263 268 263 262 261 257 245 242 238 227 225 227 234 224 217 198 193 187 182 178 168 185 197 197 188 185 186 188 194 204 209 212 212 214 220 229 230 234 237 245
280 274 267 256 258 257 261 252 256 262 238 234 233 227 228 233 228 217 200 188 189 189 181 176 187 198 197 191 184 190 200 204 205 206 212 217 222 229 233 238 237 242 245
290 273 263 258 246 258 242 254 255 248 241 237 237 228 224 227 225 218 205 188 181 189 188 184 189 194 190 189 193 207 209 205 205 207 210 220 228 234 238 243 245 243 247
293 279 267 259 260 261 264 259 252 250 245 241 236 231 232 230 225 219 210 193 190 185 186 196 198 191 192 195 206 203 208 209 207 205 212 217 223 233 241 249 257 251 246
301 286 280 265 268 266 263 244 241 237 235 232 228 212 202 200 189 192 187 189 187 186 194 196 193 200 205 204 204 199 198 201 203 204 213 223 228 231 241 247 248 242 241
295 300 277 274 265 269 267 260 239 231 227 228 230 223 216 194 192 191 192 199 199 193 192 193 196 203 205 205 203 200 205 200 199 207 220 222 228 233 237 250 261 246 244
287 285 283 273 270 267 263 265 244 225 224 226 231 227 226 205 193 191 194 200 200 196 195 197 202 207 206 208 209 210 213 215 213 213 210 229 247 252 243 239 243 245 241
276 274 273 273 268 266 269 254 247 233 231 233 227 209 208 207 201 194 197 196 199 204 208 204 206 204 208 210 207 205 203 206 209 206 221 236 243 241 237 245 241 240 236
267 261 263 267 269 268 264 247 246 233 236 242 222 209 212 205 202 194 199 202 205 201 205 206 207 196 205 203 198 204 211 204 216 215 232 245 252 245 238 235 234 232 236
264 261 260 258 255 262 260 252 239 233 236 230 220 213 218 206 200 198 193 201 200 196 196 198 202 209 212 205 203 200 201 223 224 217 231 253 240 231 223 219 219 230 229
261 248 249 249 255 258 258 247 241 232 221 224 225 223 211 197 192 194 182 189 189 194 196 199 206 208 206 204 202 205 215 224 219 227 245 237 233 221 210 206 210 221 226